Time,TemperatureF,DewpointF,PressureIn,WindDirection,WindDirectionDegrees,WindSpeedMPH,WindSpeedGustMPH,Humidity,HourlyPrecipIn,Conditions,Clouds,dailyrainin,SolarRadiationWatts/m^2,SoftwareType,DateUTC
2013-04-13 00:03:00,30.0,27.0,30.00,NNW,340,4.0,8.0,88,0.00,,,0.07,0.0,meteohub,2013-04-13 05:03:00,
2013-04-13 00:10:00,29.8,26.8,30.00,NNW,346,0.0,5.0,88,0.00,,,0.00,0.0,meteohub,2013-04-13 05:10:00,
2013-04-13 00:16:00,29.8,27.0,30.00,WNW,289,2.0,5.0,89,0.00,,,0.00,0.0,meteohub,2013-04-13 05:16:00,
2013-04-13 00:22:00,29.8,26.8,30.00,WNW,289,0.0,5.0,88,0.00,,,0.00,0.0,meteohub,2013-04-13 05:22:00,
2013-04-13 00:28:00,29.8,27.0,30.00,WNW,302,2.0,5.0,89,0.00,,,0.00,0.0,meteohub,2013-04-13 05:28:00,
2013-04-13 00:35:00,29.7,26.8,30.00,NNW,333,3.0,5.0,89,0.00,,,0.00,0.0,meteohub,2013-04-13 05:35:00,
2013-04-13 00:41:00,29.7,26.8,30.00,North,351,1.0,4.0,89,0.00,,,0.00,0.0,meteohub,2013-04-13 05:41:00,
2013-04-13 00:47:00,29.7,26.8,30.00,North,350,0.0,4.0,89,0.00,,,0.00,0.0,meteohub,2013-04-13 05:47:00,
2013-04-13 00:52:00,29.7,26.8,30.00,North,350,2.0,4.0,89,0.00,,,0.00,0.0,meteohub,2013-04-13 05:52:00,
2013-04-13 00:58:00,29.5,26.6,30.00,North,355,2.0,4.0,89,0.00,,,0.00,0.0,meteohub,2013-04-13 05:58:00,
2013-04-13 01:04:00,29.5,26.6,30.00,North,355,1.0,3.0,89,0.00,,,0.00,0.0,meteohub,2013-04-13 06:04:00,
2013-04-13 01:11:00,29.5,26.6,30.00,North,355,3.0,3.0,89,0.00,,,0.00,0.0,meteohub,2013-04-13 06:11:00,
2013-04-13 01:17:00,29.5,26.6,30.00,North,9,2.0,3.0,89,0.00,,,0.00,0.0,meteohub,2013-04-13 06:17:00,
2013-04-13 01:23:00,29.3,26.8,30.01,NNW,333,2.0,3.0,90,0.00,,,0.00,0.0,meteohub,2013-04-13 06:23:00,
2013-04-13 01:29:00,29.3,26.8,30.01,NNW,333,2.0,5.0,90,0.00,,,0.00,0.0,meteohub,2013-04-13 06:29:00,
2013-04-13 01:36:00,29.1,26.6,30.01,North,11,0.0,5.0,90,0.00,,,0.00,0.0,meteohub,2013-04-13 06:36:00,
2013-04-13 01:42:00,29.1,26.6,30.01,North,11,0.0,5.0,90,0.00,,,0.00,0.0,meteohub,2013-04-13 06:42:00,
2013-04-13 01:49:00,29.1,26.6,30.01,NNW,342,0.0,4.0,90,0.00,,,0.00,0.0,meteohub,2013-04-13 06:49:00,
2013-04-13 01:54:00,29.1,26.8,30.01,NNW,342,0.0,3.0,91,0.00,,,0.00,0.0,meteohub,2013-04-13 06:54:00,
2013-04-13 02:02:00,29.1,26.8,30.01,NNW,342,0.0,3.0,91,0.00,,,0.00,0.0,meteohub,2013-04-13 07:02:00,
2013-04-13 02:07:00,28.9,26.6,30.01,NNW,342,1.0,2.0,91,0.00,,,0.00,0.0,meteohub,2013-04-13 07:07:00,
2013-04-13 02:12:00,28.9,26.6,30.01,NNW,342,0.0,2.0,91,0.00,,,0.00,0.0,meteohub,2013-04-13 07:12:00,
2013-04-13 02:20:00,28.9,26.6,30.01,NNW,342,0.0,2.0,91,0.00,,,0.00,0.0,meteohub,2013-04-13 07:20:00,
2013-04-13 02:27:00,28.9,27.0,30.00,NNW,342,0.0,2.0,92,0.00,,,0.00,0.0,meteohub,2013-04-13 07:27:00,
2013-04-13 02:32:00,28.9,27.0,30.00,NNW,342,0.0,2.0,92,0.00,,,0.00,0.0,meteohub,2013-04-13 07:32:00,
2013-04-13 02:37:00,28.9,27.0,30.00,NNW,342,0.0,2.0,92,0.00,,,0.00,0.0,meteohub,2013-04-13 07:37:00,
2013-04-13 02:43:00,28.9,27.0,30.00,NNW,342,0.0,2.0,92,0.00,,,0.00,0.0,meteohub,2013-04-13 07:43:00,
2013-04-13 02:50:00,28.9,27.0,30.00,NNW,342,0.0,2.0,92,0.00,,,0.00,0.0,meteohub,2013-04-13 07:50:00,
2013-04-13 02:56:00,28.9,27.1,30.00,NNW,342,0.0,1.0,93,0.00,,,0.00,0.0,meteohub,2013-04-13 07:56:00,
2013-04-13 03:02:00,28.8,27.0,30.00,NNW,342,0.0,1.0,93,0.00,,,0.00,0.0,meteohub,2013-04-13 08:02:00,
2013-04-13 03:07:00,28.8,27.0,30.00,NNW,342,0.0,1.0,93,0.00,,,0.00,0.0,meteohub,2013-04-13 08:07:00,
2013-04-13 03:14:00,28.6,26.6,29.99,NNW,342,0.0,1.0,92,0.00,,,0.00,0.0,meteohub,2013-04-13 08:14:00,
2013-04-13 03:21:00,28.6,26.6,29.99,NNW,342,0.0,1.0,92,0.00,,,0.00,0.0,meteohub,2013-04-13 08:21:00,
2013-04-13 03:28:00,28.6,26.6,29.99,NNW,342,0.0,1.0,92,0.00,,,0.00,0.0,meteohub,2013-04-13 08:28:00,
2013-04-13 03:37:00,28.4,26.4,29.99,NNW,342,0.0,1.0,92,0.00,,,0.00,0.0,meteohub,2013-04-13 08:37:00,
2013-04-13 03:43:00,28.4,26.4,29.99,NNW,342,0.0,1.0,92,0.00,,,0.00,0.0,meteohub,2013-04-13 08:43:00,
2013-04-13 03:52:00,28.2,26.2,29.99,NNW,342,0.0,1.0,92,0.00,,,0.00,0.0,meteohub,2013-04-13 08:52:00,
2013-04-13 03:57:00,28.2,26.2,29.99,NNW,342,0.0,0.0,92,0.00,,,0.00,0.0,meteohub,2013-04-13 08:57:00,
2013-04-13 04:03:00,28.0,26.2,29.99,NNW,342,0.0,0.0,93,0.00,,,0.00,0.0,meteohub,2013-04-13 09:03:00,
2013-04-13 04:09:00,28.2,26.4,29.99,NNW,342,0.0,2.0,93,0.00,,,0.00,0.0,meteohub,2013-04-13 09:09:00,
2013-04-13 04:15:00,28.2,26.4,29.99,NNW,342,0.0,2.0,93,0.00,,,0.00,0.0,meteohub,2013-04-13 09:15:00,
2013-04-13 04:22:00,28.2,26.4,29.99,NNW,342,0.0,2.0,93,0.00,,,0.00,0.0,meteohub,2013-04-13 09:22:00,
2013-04-13 04:28:00,28.2,26.4,29.99,NNW,342,0.0,0.0,93,0.00,,,0.00,0.0,meteohub,2013-04-13 09:28:00,
2013-04-13 04:38:00,28.0,26.2,29.99,NNW,342,0.0,0.0,93,0.00,,,0.00,0.0,meteohub,2013-04-13 09:38:00,
2013-04-13 04:43:00,28.0,26.2,29.99,NNW,342,0.0,0.0,93,0.00,,,0.00,0.0,meteohub,2013-04-13 09:43:00,
2013-04-13 04:50:00,28.0,26.2,29.99,NNW,342,0.0,1.0,93,0.00,,,0.00,0.0,meteohub,2013-04-13 09:50:00,
2013-04-13 04:57:00,28.0,26.2,29.99,NNW,342,0.0,0.0,93,0.00,,,0.00,0.0,meteohub,2013-04-13 09:57:00,
2013-04-13 05:04:00,28.2,26.8,29.99,NNW,342,0.0,0.0,94,0.00,,,0.00,0.0,meteohub,2013-04-13 10:04:00,
2013-04-13 05:10:00,28.2,26.8,29.99,NNW,342,0.0,0.0,94,0.00,,,0.00,0.0,meteohub,2013-04-13 10:10:00,
2013-04-13 05:16:00,28.2,26.8,29.99,NNW,342,0.0,0.0,94,0.00,,,0.00,0.0,meteohub,2013-04-13 10:16:00,
2013-04-13 05:22:00,28.4,27.0,29.99,NNW,342,0.0,0.0,94,0.00,,,0.00,0.0,meteohub,2013-04-13 10:22:00,
2013-04-13 05:30:00,28.6,27.1,29.99,NNW,342,0.0,0.0,94,0.00,,,0.00,0.0,meteohub,2013-04-13 10:30:00,
2013-04-13 05:37:00,28.8,27.3,29.99,WSW,257,0.0,0.0,94,0.00,,,0.00,0.0,meteohub,2013-04-13 10:37:00,
2013-04-13 05:44:00,28.8,27.3,29.99,WSW,256,2.0,4.0,94,0.00,,,0.00,0.0,meteohub,2013-04-13 10:44:00,
2013-04-13 05:51:00,29.1,27.9,29.98,West,275,0.0,4.0,95,0.00,,,0.00,0.0,meteohub,2013-04-13 10:51:00,
2013-04-13 05:57:00,29.3,28.0,29.99,WSW,240,3.0,4.0,95,0.00,,,0.00,0.0,meteohub,2013-04-13 10:57:00,
2013-04-13 06:04:00,29.5,28.0,29.98,West,279,0.0,4.0,94,0.00,,,0.00,0.0,meteohub,2013-04-13 11:04:00,
2013-04-13 06:10:00,29.5,28.0,29.99,SW,225,1.0,7.0,94,0.00,,,0.00,0.0,meteohub,2013-04-13 11:10:00,
2013-04-13 06:17:00,29.7,28.2,29.99,West,275,2.0,7.0,94,0.00,,,0.00,0.0,meteohub,2013-04-13 11:17:00,
2013-04-13 06:28:00,29.7,28.2,29.99,WSW,258,2.0,7.0,94,0.00,,,0.00,0.0,meteohub,2013-04-13 11:28:00,
2013-04-13 06:44:00,29.7,28.2,29.99,West,274,2.0,5.0,94,0.01,,,0.00,0.0,meteohub,2013-04-13 11:44:00,
2013-04-13 06:51:00,29.8,28.0,29.99,WNW,286,4.0,8.0,93,0.01,,,0.01,5.0,meteohub,2013-04-13 11:51:00,
2013-04-13 06:57:00,29.8,28.0,29.99,West,262,2.0,8.0,93,0.01,,,0.01,5.0,meteohub,2013-04-13 11:57:00,
2013-04-13 07:04:00,29.8,28.0,30.00,SW,230,1.0,8.0,93,0.01,,,0.01,7.0,meteohub,2013-04-13 12:04:00,
2013-04-13 07:12:00,29.8,27.9,30.00,WNW,296,0.0,9.0,92,0.01,,,0.01,7.0,meteohub,2013-04-13 12:12:00,
2013-04-13 07:19:00,29.8,27.9,30.00,NW,311,1.0,9.0,92,0.01,,,0.01,14.0,meteohub,2013-04-13 12:19:00,
2013-04-13 07:26:00,30.0,28.2,30.00,WNW,290,2.0,9.0,93,0.01,,,0.01,16.0,meteohub,2013-04-13 12:26:00,
2013-04-13 07:32:00,30.0,28.0,30.00,West,279,2.0,5.0,92,0.00,,,0.01,26.0,meteohub,2013-04-13 12:32:00,
2013-04-13 07:46:00,30.0,28.0,30.00,NNE,17,0.0,5.0,92,0.00,,,0.01,28.0,meteohub,2013-04-13 12:46:00,
2013-04-13 07:56:00,30.0,27.7,30.00,NW,319,3.0,9.0,91,0.00,,,0.01,44.0,meteohub,2013-04-13 12:56:00,
2013-04-13 08:02:00,30.0,27.7,30.01,West,279,3.0,9.0,91,0.00,,,0.01,49.0,meteohub,2013-04-13 13:02:00,
2013-04-13 08:07:00,30.0,27.5,30.01,North,355,3.0,9.0,90,0.00,,,0.01,54.0,meteohub,2013-04-13 13:07:00,
2013-04-13 08:12:00,29.8,27.3,30.01,NW,324,5.0,9.0,90,0.00,,,0.01,65.0,meteohub,2013-04-13 13:12:00,
2013-04-13 08:17:00,29.7,26.8,30.01,NW,320,4.0,10.0,89,0.00,,,0.01,46.0,meteohub,2013-04-13 13:17:00,
2013-04-13 08:24:00,29.7,26.8,30.02,WSW,246,1.0,10.0,89,0.00,,,0.01,54.0,meteohub,2013-04-13 13:24:00,
2013-04-13 08:32:00,29.8,26.8,30.02,WNW,293,2.0,9.0,88,0.00,,,0.01,69.0,meteohub,2013-04-13 13:32:00,
2013-04-13 08:37:00,30.0,27.1,30.02,NW,325,0.0,9.0,89,0.00,,,0.01,144.0,meteohub,2013-04-13 13:37:00,
2013-04-13 08:44:00,30.4,27.0,30.02,NNW,339,4.0,9.0,87,0.00,,,0.01,151.0,meteohub,2013-04-13 13:44:00,
2013-04-13 08:50:00,30.6,27.1,30.02,West,276,2.0,9.0,87,0.00,,,0.01,128.0,meteohub,2013-04-13 13:50:00,
2013-04-13 08:56:00,30.7,27.1,30.02,North,355,2.0,9.0,86,0.00,,,0.01,148.0,meteohub,2013-04-13 13:56:00,
2013-04-13 09:02:00,30.9,27.1,30.02,North,10,4.0,9.0,86,0.00,,,0.01,158.0,meteohub,2013-04-13 14:02:00,
2013-04-13 09:09:00,31.3,27.3,30.02,NNW,341,4.0,9.0,85,0.00,,,0.01,188.0,meteohub,2013-04-13 14:09:00,
2013-04-13 09:15:00,31.5,27.1,30.02,WNW,295,1.0,9.0,84,0.00,,,0.01,218.0,meteohub,2013-04-13 14:15:00,
2013-04-13 09:21:00,31.8,27.5,30.02,West,273,4.0,7.0,84,0.00,,,0.01,192.0,meteohub,2013-04-13 14:21:00,
2013-04-13 09:27:00,31.6,27.1,30.02,North,5,0.0,7.0,83,0.00,,,0.01,165.0,meteohub,2013-04-13 14:27:00,
2013-04-13 09:33:00,31.6,27.1,30.02,WNW,301,4.0,7.0,83,0.00,,,0.01,264.0,meteohub,2013-04-13 14:33:00,
2013-04-13 09:38:00,32.0,27.1,30.02,NW,311,4.0,8.0,82,0.00,,,0.01,248.0,meteohub,2013-04-13 14:38:00,
2013-04-13 09:44:00,32.2,27.0,30.02,North,5,2.0,8.0,81,0.00,,,0.01,223.0,meteohub,2013-04-13 14:44:00,
2013-04-13 09:51:00,32.2,26.8,30.02,WNW,300,3.0,9.0,80,0.00,,,0.01,244.0,meteohub,2013-04-13 14:51:00,
2013-04-13 09:57:00,32.2,26.4,30.02,NNW,336,3.0,9.0,79,0.00,,,0.01,274.0,meteohub,2013-04-13 14:57:00,
2013-04-13 10:03:00,32.2,26.8,30.02,WNW,302,4.0,12.0,80,0.00,,,0.01,345.0,meteohub,2013-04-13 15:03:00,
2013-04-13 10:09:00,32.7,27.0,30.02,SSW,213,3.0,12.0,79,0.00,,,0.01,301.0,meteohub,2013-04-13 15:09:00,
2013-04-13 10:16:00,33.1,27.0,30.02,WNW,302,2.0,12.0,78,0.00,,,0.01,360.0,meteohub,2013-04-13 15:16:00,
2013-04-13 10:22:00,33.4,26.4,30.02,NW,326,2.0,11.0,75,0.00,,,0.01,687.0,meteohub,2013-04-13 15:22:00,
2013-04-13 10:28:00,34.3,26.6,30.01,NNW,327,3.0,9.0,73,0.00,,,0.01,406.0,meteohub,2013-04-13 15:28:00,
2013-04-13 10:35:00,34.0,26.2,30.01,NW,313,3.0,9.0,73,0.00,,,0.01,295.0,meteohub,2013-04-13 15:35:00,
2013-04-13 10:44:00,33.3,26.6,30.02,WSW,252,4.0,9.0,76,0.00,,,0.01,279.0,meteohub,2013-04-13 15:44:00,
2013-04-13 10:51:00,33.4,26.8,30.02,West,274,3.0,11.0,76,0.00,,,0.01,594.0,meteohub,2013-04-13 15:51:00,
2013-04-13 10:57:00,34.3,27.0,30.02,NNE,22,9.0,11.0,74,0.00,,,0.01,958.0,meteohub,2013-04-13 15:57:00,
2013-04-13 11:04:00,34.9,26.8,30.02,SW,225,0.0,9.0,72,0.00,,,0.01,522.0,meteohub,2013-04-13 16:04:00,
2013-04-13 11:10:00,35.1,26.6,30.02,WSW,248,6.0,10.0,71,0.00,,,0.01,385.0,meteohub,2013-04-13 16:10:00,
2013-04-13 11:17:00,34.9,26.8,30.02,WNW,292,4.0,10.0,72,0.00,,,0.01,378.0,meteohub,2013-04-13 16:17:00,
2013-04-13 11:23:00,34.9,26.4,30.03,NW,310,1.0,15.0,71,0.00,,,0.01,877.0,meteohub,2013-04-13 16:23:00,
2013-04-13 11:29:00,35.8,27.0,30.02,SW,236,4.0,10.0,70,0.00,,,0.01,415.0,meteohub,2013-04-13 16:29:00,
2013-04-13 11:39:00,35.8,27.0,30.02,North,11,5.0,10.0,70,0.00,,,0.01,302.0,meteohub,2013-04-13 16:39:00,
2013-04-13 11:44:00,35.2,26.4,30.03,NNE,30,1.0,8.0,70,0.00,,,0.01,360.0,meteohub,2013-04-13 16:44:00,
2013-04-13 11:49:00,35.2,26.4,30.03,NW,323,1.0,8.0,70,0.00,,,0.01,443.0,meteohub,2013-04-13 16:49:00,
2013-04-13 11:59:00,36.1,26.2,30.03,NW,321,3.0,9.0,67,0.00,,,0.02,390.0,meteohub,2013-04-13 16:59:00,
2013-04-13 12:05:00,36.1,26.6,30.03,WSW,254,2.0,11.0,68,0.01,,,0.02,476.0,meteohub,2013-04-13 17:05:00,
2013-04-13 12:12:00,36.3,26.1,30.03,NNW,348,9.0,11.0,66,0.01,,,0.02,471.0,meteohub,2013-04-13 17:12:00,
2013-04-13 12:18:00,36.1,25.2,30.03,NNW,342,6.0,11.0,64,0.01,,,0.02,366.0,meteohub,2013-04-13 17:18:00,
2013-04-13 12:24:00,36.0,25.3,30.03,NW,321,3.0,10.0,65,0.01,,,0.02,302.0,meteohub,2013-04-13 17:24:00,
2013-04-13 12:30:00,35.8,25.9,30.03,WSW,258,1.0,10.0,67,0.01,,,0.02,195.0,meteohub,2013-04-13 17:30:00,
2013-04-13 12:37:00,35.2,25.7,30.03,West,265,7.0,10.0,68,0.01,,,0.02,248.0,meteohub,2013-04-13 17:37:00,
2013-04-13 12:43:00,35.1,25.9,30.04,North,0,0.0,10.0,69,0.01,,,0.02,329.0,meteohub,2013-04-13 17:43:00,
2013-04-13 12:49:00,35.2,25.7,30.04,West,269,6.0,10.0,68,0.01,,,0.02,255.0,meteohub,2013-04-13 17:49:00,
2013-04-13 12:55:00,35.2,25.7,30.03,West,263,5.0,11.0,68,0.01,,,0.02,227.0,meteohub,2013-04-13 17:55:00,
2013-04-13 13:01:00,35.2,25.7,30.03,North,355,2.0,11.0,68,0.01,,,0.02,297.0,meteohub,2013-04-13 18:01:00,
2013-04-13 13:07:00,35.4,26.6,30.04,West,273,8.0,8.0,70,0.00,,,0.02,158.0,meteohub,2013-04-13 18:07:00,
2013-04-13 13:13:00,34.9,26.8,30.04,West,261,4.0,8.0,72,0.00,,,0.02,183.0,meteohub,2013-04-13 18:13:00,
2013-04-13 13:20:00,34.5,26.8,30.04,West,264,0.0,11.0,73,0.00,,,0.02,294.0,meteohub,2013-04-13 18:20:00,
2013-04-13 13:26:00,34.9,26.8,30.04,NW,313,4.0,11.0,72,0.00,,,0.02,343.0,meteohub,2013-04-13 18:26:00,
2013-04-13 13:28:00,35.1,27.0,30.04,North,351,3.0,11.0,72,0.00,,,0.02,323.0,meteohub,2013-04-13 18:28:00,
2013-04-13 13:30:00,35.1,27.3,30.04,West,266,7.0,11.0,73,0.00,,,0.02,318.0,meteohub,2013-04-13 18:30:00,
2013-04-13 13:32:00,35.1,27.0,30.04,WSW,244,3.0,11.0,72,0.00,,,0.02,325.0,meteohub,2013-04-13 18:32:00,
2013-04-13 13:38:00,35.2,27.5,30.04,WSW,256,0.0,11.0,73,0.00,,,0.02,380.0,meteohub,2013-04-13 18:38:00,
2013-04-13 13:45:00,35.6,27.5,30.04,West,265,8.0,12.0,72,0.00,,,0.02,309.0,meteohub,2013-04-13 18:45:00,
2013-04-13 13:51:00,35.8,27.3,30.04,WNW,294,10.0,12.0,71,0.00,,,0.02,255.0,meteohub,2013-04-13 18:51:00,
2013-04-13 13:57:00,35.4,27.3,30.04,WNW,293,1.0,11.0,72,0.00,,,0.02,264.0,meteohub,2013-04-13 18:57:00,
2013-04-13 14:04:00,35.6,27.5,30.04,NNW,331,4.0,11.0,72,0.00,,,0.02,339.0,meteohub,2013-04-13 19:04:00,
2013-04-13 14:10:00,35.2,27.5,30.04,WNW,288,4.0,10.0,73,0.00,,,0.02,483.0,meteohub,2013-04-13 19:10:00,
2013-04-13 14:16:00,35.6,27.9,30.04,West,269,4.0,9.0,73,0.00,,,0.02,766.0,meteohub,2013-04-13 19:16:00,
2013-04-13 14:22:00,36.3,28.6,30.04,West,262,4.0,9.0,73,0.00,,,0.02,450.0,meteohub,2013-04-13 19:22:00,
2013-04-13 14:28:00,36.9,28.9,30.04,North,0,2.0,8.0,73,0.00,,,0.02,554.0,meteohub,2013-04-13 19:28:00,
2013-04-13 14:35:00,36.9,28.0,30.04,West,261,3.0,8.0,70,0.00,,,0.02,441.0,meteohub,2013-04-13 19:35:00,
2013-04-13 14:41:00,37.0,28.2,30.04,West,263,2.0,8.0,70,0.00,,,0.02,413.0,meteohub,2013-04-13 19:41:00,
2013-04-13 14:47:00,36.9,27.3,30.04,ENE,61,3.0,7.0,68,0.00,,,0.02,536.0,meteohub,2013-04-13 19:47:00,
2013-04-13 14:53:00,36.7,27.1,30.04,NW,322,5.0,7.0,68,0.00,,,0.02,448.0,meteohub,2013-04-13 19:53:00,
2013-04-13 14:59:00,36.7,27.5,30.04,West,259,8.0,8.0,69,0.00,,,0.02,401.0,meteohub,2013-04-13 19:59:00,
2013-04-13 15:06:00,36.5,27.3,30.04,North,0,4.0,8.0,69,0.00,,,0.02,385.0,meteohub,2013-04-13 20:06:00,
2013-04-13 15:12:00,36.7,27.5,30.04,North,355,2.0,8.0,69,0.00,,,0.02,322.0,meteohub,2013-04-13 20:12:00,
2013-04-13 15:18:00,36.5,27.0,30.04,NNW,335,4.0,8.0,68,0.00,,,0.02,308.0,meteohub,2013-04-13 20:18:00,
2013-04-13 15:24:00,36.1,26.6,30.04,NW,304,3.0,8.0,68,0.00,,,0.02,290.0,meteohub,2013-04-13 20:24:00,
2013-04-13 15:31:00,36.3,26.8,30.04,NE,40,3.0,9.0,68,0.00,,,0.02,330.0,meteohub,2013-04-13 20:31:00,
2013-04-13 15:37:00,36.5,27.0,30.04,WNW,292,5.0,9.0,68,0.00,,,0.02,306.0,meteohub,2013-04-13 20:37:00,
2013-04-13 15:43:00,36.3,26.4,30.04,West,281,3.0,9.0,67,0.00,,,0.02,287.0,meteohub,2013-04-13 20:43:00,
2013-04-13 15:49:00,36.1,26.2,30.04,WSW,244,5.0,10.0,67,0.00,,,0.02,255.0,meteohub,2013-04-13 20:49:00,
2013-04-13 15:55:00,36.1,26.6,30.04,North,349,4.0,12.0,68,0.00,,,0.02,239.0,meteohub,2013-04-13 20:55:00,
2013-04-13 16:02:00,36.1,27.0,30.04,West,275,0.0,12.0,69,0.00,,,0.02,213.0,meteohub,2013-04-13 21:02:00,
2013-04-13 16:08:00,36.1,27.0,30.04,North,355,1.0,9.0,69,0.00,,,0.02,221.0,meteohub,2013-04-13 21:08:00,
2013-04-13 16:14:00,36.0,26.8,30.04,NNW,330,5.0,10.0,69,0.00,,,0.02,193.0,meteohub,2013-04-13 21:14:00,
2013-04-13 16:20:00,35.8,27.0,30.04,WNW,282,4.0,10.0,70,0.00,,,0.02,213.0,meteohub,2013-04-13 21:20:00,
2013-04-13 16:27:00,36.0,27.1,30.04,WNW,290,0.0,6.0,70,0.00,,,0.02,223.0,meteohub,2013-04-13 21:27:00,
2013-04-13 16:32:00,36.0,27.1,30.04,WNW,290,1.0,6.0,70,0.00,,,0.02,239.0,meteohub,2013-04-13 21:32:00,
2013-04-13 16:37:00,36.1,26.6,30.04,NNW,346,3.0,7.0,68,0.00,,,0.02,236.0,meteohub,2013-04-13 21:37:00,
2013-04-13 16:43:00,36.0,27.1,30.04,NNW,330,0.0,7.0,70,0.00,,,0.02,206.0,meteohub,2013-04-13 21:43:00,
2013-04-13 16:49:00,36.0,26.8,30.04,NNE,15,1.0,7.0,69,0.00,,,0.02,230.0,meteohub,2013-04-13 21:49:00,
2013-04-13 16:56:00,36.0,26.8,30.04,WNW,296,5.0,5.0,69,0.00,,,0.02,211.0,meteohub,2013-04-13 21:56:00,
2013-04-13 17:02:00,36.0,26.4,30.04,North,355,2.0,5.0,68,0.00,,,0.02,206.0,meteohub,2013-04-13 22:02:00,
2013-04-13 17:08:00,36.0,26.8,30.04,NW,320,1.0,6.0,69,0.00,,,0.02,197.0,meteohub,2013-04-13 22:08:00,
2013-04-13 17:14:00,36.0,26.4,30.04,West,273,3.0,6.0,68,0.00,,,0.02,199.0,meteohub,2013-04-13 22:14:00,
2013-04-13 17:20:00,36.1,26.6,30.04,West,268,2.0,6.0,68,0.00,,,0.02,200.0,meteohub,2013-04-13 22:20:00,
2013-04-13 17:26:00,36.3,26.8,30.04,North,5,1.0,5.0,68,0.00,,,0.02,183.0,meteohub,2013-04-13 22:26:00,
2013-04-13 17:32:00,36.1,26.2,30.04,North,355,2.0,5.0,67,0.00,,,0.02,179.0,meteohub,2013-04-13 22:32:00,
2013-04-13 17:37:00,36.0,26.4,30.04,NW,306,0.0,8.0,68,0.00,,,0.02,167.0,meteohub,2013-04-13 22:37:00,
2013-04-13 17:43:00,36.0,26.8,30.04,NNW,344,3.0,8.0,69,0.00,,,0.02,163.0,meteohub,2013-04-13 22:43:00,
2013-04-13 17:49:00,36.0,26.8,30.04,NNE,22,3.0,7.0,69,0.00,,,0.02,172.0,meteohub,2013-04-13 22:49:00,
2013-04-13 17:56:00,35.8,26.2,30.04,North,5,2.0,7.0,68,0.00,,,0.02,137.0,meteohub,2013-04-13 22:56:00,
2013-04-13 18:02:00,35.8,27.0,30.04,NE,40,4.0,7.0,70,0.00,,,0.02,141.0,meteohub,2013-04-13 23:02:00,
2013-04-13 18:08:00,35.6,26.4,30.04,North,355,1.0,7.0,69,0.00,,,0.02,139.0,meteohub,2013-04-13 23:08:00,
2013-04-13 18:14:00,35.6,26.4,30.04,NNE,19,3.0,6.0,69,0.00,,,0.02,132.0,meteohub,2013-04-13 23:14:00,
2013-04-13 18:20:00,35.6,26.4,30.04,NE,35,2.0,6.0,69,0.00,,,0.02,125.0,meteohub,2013-04-13 23:20:00,
2013-04-13 18:27:00,35.4,26.2,30.05,North,0,2.0,6.0,69,0.00,,,0.02,141.0,meteohub,2013-04-13 23:27:00,
2013-04-13 18:33:00,35.4,25.9,30.05,NNE,31,0.0,7.0,68,0.00,,,0.02,98.0,meteohub,2013-04-13 23:33:00,
2013-04-13 18:39:00,35.2,26.1,30.05,NE,42,3.0,7.0,69,0.00,,,0.02,81.0,meteohub,2013-04-13 23:39:00,
2013-04-13 18:46:00,35.2,26.8,30.05,NE,42,1.0,5.0,71,0.00,,,0.02,65.0,meteohub,2013-04-13 23:46:00,
2013-04-13 18:52:00,35.1,26.6,30.05,NE,40,3.0,5.0,71,0.00,,,0.02,56.0,meteohub,2013-04-13 23:52:00,
2013-04-13 18:58:00,34.9,26.8,30.06,NE,40,2.0,5.0,72,0.00,,,0.02,49.0,meteohub,2013-04-13 23:58:00,
2013-04-13 19:05:00,34.7,26.6,30.06,NE,34,2.0,5.0,72,0.00,,,0.02,46.0,meteohub,2013-04-14 00:05:00,
2013-04-13 19:11:00,34.5,26.4,30.06,NE,37,0.0,6.0,72,0.00,,,0.02,37.0,meteohub,2013-04-14 00:11:00,
2013-04-13 19:17:00,34.5,26.4,30.06,NE,36,0.0,6.0,72,0.00,,,0.02,28.0,meteohub,2013-04-14 00:17:00,
2013-04-13 19:23:00,34.3,26.6,30.06,NE,36,0.0,6.0,73,0.00,,,0.02,21.0,meteohub,2013-04-14 00:23:00,
2013-04-13 19:29:00,34.3,27.0,30.06,NE,36,0.0,2.0,74,0.00,,,0.02,16.0,meteohub,2013-04-14 00:29:00,
2013-04-13 19:35:00,34.2,26.1,30.06,NE,37,1.0,2.0,72,0.00,,,0.02,12.0,meteohub,2013-04-14 00:35:00,
2013-04-13 19:42:00,34.2,26.1,30.06,NE,44,0.0,4.0,72,0.00,,,0.02,9.0,meteohub,2013-04-14 00:42:00,
2013-04-13 19:47:00,34.2,26.8,30.06,NE,44,1.0,4.0,74,0.00,,,0.02,5.0,meteohub,2013-04-14 00:47:00,
2013-04-13 19:52:00,34.0,26.6,30.06,NE,45,2.0,5.0,74,0.00,,,0.02,5.0,meteohub,2013-04-14 00:52:00,
2013-04-13 19:58:00,34.0,26.2,30.06,NE,45,2.0,5.0,73,0.00,,,0.02,0.0,meteohub,2013-04-14 00:58:00,
2013-04-13 20:04:00,33.8,26.1,30.06,NE,46,1.0,3.0,73,0.00,,,0.02,0.0,meteohub,2013-04-14 01:04:00,
2013-04-13 20:11:00,33.8,26.4,30.06,NE,46,0.0,4.0,74,0.00,,,0.02,0.0,meteohub,2013-04-14 01:11:00,
2013-04-13 20:17:00,33.6,26.2,30.07,NE,46,0.0,4.0,74,0.00,,,0.02,0.0,meteohub,2013-04-14 01:17:00,
2013-04-13 20:23:00,33.6,25.9,30.07,NE,46,1.0,3.0,73,0.00,,,0.02,0.0,meteohub,2013-04-14 01:23:00,
2013-04-13 20:30:00,33.6,25.9,30.08,NE,46,0.0,3.0,73,0.00,,,0.02,0.0,meteohub,2013-04-14 01:30:00,
2013-04-13 20:36:00,33.4,26.1,30.08,NE,46,0.0,3.0,74,0.00,,,0.02,0.0,meteohub,2013-04-14 01:36:00,
2013-04-13 20:42:00,33.4,26.1,30.08,NE,46,0.0,3.0,74,0.00,,,0.02,0.0,meteohub,2013-04-14 01:42:00,
2013-04-13 20:48:00,33.4,26.1,30.08,NE,46,0.0,2.0,74,0.00,,,0.02,0.0,meteohub,2013-04-14 01:48:00,
2013-04-13 20:55:00,33.4,26.4,30.09,NE,46,0.0,2.0,75,0.00,,,0.02,0.0,meteohub,2013-04-14 01:55:00,
2013-04-13 21:01:00,33.3,26.2,30.09,NE,46,0.0,2.0,75,0.00,,,0.02,0.0,meteohub,2013-04-14 02:01:00,
2013-04-13 21:08:00,33.3,26.2,30.09,NE,46,2.0,2.0,75,0.00,,,0.02,0.0,meteohub,2013-04-14 02:08:00,
2013-04-13 21:14:00,33.3,25.9,30.09,NE,44,2.0,2.0,74,0.00,,,0.02,0.0,meteohub,2013-04-14 02:14:00,
2013-04-13 21:20:00,33.4,25.7,30.09,NE,47,0.0,3.0,73,0.00,,,0.02,0.0,meteohub,2013-04-14 02:20:00,
2013-04-13 21:26:00,33.4,25.7,30.09,NE,48,0.0,3.0,73,0.00,,,0.02,0.0,meteohub,2013-04-14 02:26:00,
2013-04-13 21:32:00,33.3,25.5,30.09,NE,48,0.0,3.0,73,0.00,,,0.02,0.0,meteohub,2013-04-14 02:32:00,
2013-04-13 21:38:00,33.3,25.5,30.10,NE,48,0.0,1.0,73,0.00,,,0.02,0.0,meteohub,2013-04-14 02:38:00,
2013-04-13 21:44:00,33.1,25.0,30.10,NE,48,0.0,1.0,72,0.00,,,0.02,0.0,meteohub,2013-04-14 02:44:00,
2013-04-13 21:51:00,33.1,25.3,30.10,NE,48,0.0,1.0,73,0.00,,,0.02,0.0,meteohub,2013-04-14 02:51:00,
2013-04-13 21:57:00,32.7,24.6,30.10,NE,48,0.0,1.0,72,0.00,,,0.02,0.0,meteohub,2013-04-14 02:57:00,
2013-04-13 22:03:00,32.5,24.4,30.11,NE,48,0.0,1.0,72,0.00,,,0.02,0.0,meteohub,2013-04-14 03:03:00,
2013-04-13 22:09:00,32.4,24.3,30.11,NE,48,0.0,0.0,72,0.00,,,0.02,0.0,meteohub,2013-04-14 03:09:00,
2013-04-13 22:15:00,32.2,24.4,30.11,NE,48,0.0,0.0,73,0.00,,,0.02,0.0,meteohub,2013-04-14 03:15:00,
2013-04-13 22:22:00,31.8,24.4,30.11,NE,48,0.0,0.0,74,0.00,,,0.02,0.0,meteohub,2013-04-14 03:22:00,
2013-04-13 22:28:00,31.6,24.6,30.12,NE,48,1.0,1.0,75,0.00,,,0.02,0.0,meteohub,2013-04-14 03:28:00,
2013-04-13 22:34:00,31.5,24.8,30.11,NE,48,0.0,1.0,76,0.00,,,0.02,0.0,meteohub,2013-04-14 03:34:00,
2013-04-13 22:40:00,31.1,24.4,30.12,NE,48,0.0,1.0,76,0.00,,,0.02,0.0,meteohub,2013-04-14 03:40:00,
2013-04-13 22:47:00,30.9,24.3,30.12,NE,48,0.0,1.0,76,0.00,,,0.02,0.0,meteohub,2013-04-14 03:47:00,
2013-04-13 22:53:00,30.7,24.4,30.12,NE,48,0.0,0.0,77,0.00,,,0.02,0.0,meteohub,2013-04-14 03:53:00,
2013-04-13 22:59:00,30.6,24.4,30.12,NE,48,0.0,0.0,78,0.00,,,0.02,0.0,meteohub,2013-04-14 03:59:00,
2013-04-13 23:01:00,30.6,24.4,30.13,NE,48,0.0,0.0,78,0.00,,,0.02,0.0,meteohub,2013-04-14 04:01:00,
2013-04-13 23:03:00,30.6,24.8,30.13,NE,48,0.0,0.0,79,0.00,,,0.02,0.0,meteohub,2013-04-14 04:03:00,
2013-04-13 23:05:00,30.6,24.8,30.12,NE,48,0.0,0.0,79,0.00,,,0.02,0.0,meteohub,2013-04-14 04:05:00,
2013-04-13 23:09:00,30.6,24.8,30.13,NE,48,0.0,1.0,79,0.00,,,0.02,0.0,meteohub,2013-04-14 04:09:00,
2013-04-13 23:15:00,30.4,24.6,30.12,NE,48,0.0,1.0,79,0.00,,,0.02,0.0,meteohub,2013-04-14 04:15:00,
2013-04-13 23:22:00,30.2,24.4,30.12,NE,48,0.0,1.0,79,0.00,,,0.02,0.0,meteohub,2013-04-14 04:22:00,
2013-04-13 23:28:00,30.0,24.6,30.12,NE,48,0.0,0.0,80,0.00,,,0.02,0.0,meteohub,2013-04-14 04:28:00,
2013-04-13 23:34:00,29.8,24.4,30.12,NE,48,0.0,0.0,80,0.00,,,0.02,0.0,meteohub,2013-04-14 04:34:00,
2013-04-13 23:41:00,29.7,24.6,30.12,NE,48,0.0,0.0,81,0.00,,,0.02,0.0,meteohub,2013-04-14 04:41:00,
2013-04-13 23:47:00,29.5,24.4,30.12,NE,48,0.0,0.0,81,0.00,,,0.02,0.0,meteohub,2013-04-14 04:47:00,
2013-04-13 23:52:00,29.5,24.6,30.12,NE,48,0.0,1.0,82,0.00,,,0.02,0.0,meteohub,2013-04-14 04:52:00,
2013-04-13 23:57:00,29.7,24.8,30.12,NE,48,0.0,1.0,82,0.00,,,0.02,0.0,meteohub,2013-04-14 04:57:00,